Weather in Geesthacht

Germany     53°26′14″N   10°22′07″E
temp.,
°C
wind,
m/s
gust,
m/s
humid.,
%
clouds,
%
prec.,
mm/h
press.,
hPa
HPBL,
m
22 october, fri
fri2223:00+7w7147877 0.9 1004930
02:00+6wsw71484100 1.3 1006601
05:00+7wsw101785100 2.1 10051212
08:00+7wsw101980100 2.4 10041334
11:00+8wsw122280100 0.8 10021672
14:00+7nw71582100 8.9 10061410
17:00+8wnw8146958 1.3 10091288
20:00+6w51277100 1.4 1013545
23 october, sat
sat2323:00+6wsw5118590 0.4 1015392
02:00+6wsw51288100 0.7 1017449
05:00+5w5128910 0.1 1019421
08:00+4wsw499545 0.2 1020221
11:00+9w388090 0.1 1023536
14:00+11wnw477046 0.3 10251096
17:00+10w3575100 0.1 1026182
20:00+7wsw2287100 0.1 102739
24 october, sun
sun2423:00+6wsw239223 0.0 102855
02:00+5sw249014 0.0 102869
05:00+4s2390100 0.0 102849
08:00+4sse3590100 0.0 1028105
11:00+8s4874100 0.0 1028323
14:00+11s475544 0.0 1026696
17:00+10sse366566 0.0 1024187
20:00+6se310795 0.0 1023207
25 october, mon
mon2523:00+5sse37833 0.0 1023121
02:00+5s35820 0.0 102196
05:00+4ssw35830 0.0 102086
08:00+3ssw37870 0.0 1020131
11:00+8sw48722 0.0 1020345
14:00+12sw4761100 0.0 1020605
17:00+10sw3772100 0.0 1019280
20:00+9ssw3107695 0.0 1019347
26 october, tue
tue2623:00+9sw4108292 0.0 1020312
02:00+7sw310950 0.0 1020257
05:00+7sw3119688 0.0 1020289
08:00+7sw3109760 0.0 1020275
11:00+10sw5108882 0.0 1020409
14:00+12sw5118190 0.0 1020719
17:00+12sw61281100 0.0 1019730
20:00+12sw61389100 0.9 1019742